| time (UTC) | temp F | wind direction | speed MPH | gust MPH | rain 1hr in | rain 24hr in | rain mn in | humidity % | barometer mb |
| 20260505113044 | 57 | 265 | 4.0 | 8.0 | 0.00 | 0.00 | 0.00 | 80 | 1023.3 |
| 20260505111535 | 58 | 281 | 1.0 | 8.0 | 0.00 | 0.00 | 0.00 | 80 | 1023.1 |
| 20260505101549 | 59 | 203 | 4.0 | 11.0 | 0.00 | 0.00 | 0.00 | 80 | 1022.8 |
| 20260505100053 | 60 | 217 | 4.0 | 11.0 | 0.00 | 0.00 | 0.00 | 80 | 1022.8 |
| 20260505094532 | 60 | 213 | 5.0 | 16.0 | 0.00 | 0.00 | 0.00 | 81 | 1022.8 |
| 20260505093028 | 60 | 232 | 8.0 | 15.0 | 0.00 | 0.00 | 0.00 | 85 | 1022.5 |
| 20260505091524 | 60 | 267 | 8.0 | 16.0 | 0.00 | 0.00 | 0.00 | 82 | 1022.2 |
| 20260505090023 | 60 | 227 | 6.0 | 16.0 | 0.00 | 0.00 | 0.00 | 86 | 1022.0 |
| 20260505084522 | 60 | 210 | 6.0 | 15.0 | 0.00 | 0.00 | 0.00 | 87 | 1021.8 |
| 20260505083023 | 60 | 210 | 7.0 | 18.0 | 0.00 | 0.00 | 0.00 | 82 | 1021.5 |
| 20260505081517 | 60 | 250 | 11.0 | 18.0 | 0.00 | 0.00 | 0.00 | 80 | 1021.2 |
| 20260505080014 | 60 | 233 | 12.0 | 20.0 | 0.00 | 0.00 | 0.00 | 80 | 1021.0 |
| 20260505074511 | 60 | 206 | 9.0 | 24.0 | 0.00 | 0.00 | 0.00 | 82 | 1020.6 |
| 20260505073028 | 60 | 191 | 9.0 | 16.0 | 0.00 | 0.00 | 0.00 | 84 | 1020.4 |
| 20260505071508 | 60 | 214 | 7.0 | 13.0 | 0.00 | 0.00 | 0.00 | 85 | 1020.3 |
| 20260505070006 | 60 | 221 | 7.0 | 15.0 | 0.00 | 0.00 | 0.00 | 84 | 1020.0 |
| 20260505064502 | 62 | 183 | 6.0 | 19.0 | 0.00 | 0.00 | 0.00 | 82 | 1019.8 |
| 20260505063001 | 62 | 223 | 11.0 | 21.0 | 0.00 | 0.00 | 0.00 | 78 | 1019.6 |
| 20260505061601 | 62 | 210 | 10.0 | 20.0 | 0.00 | 0.00 | 0.00 | 79 | 1019.6 |
| 20260505060103 | 62 | 212 | 11.0 | 18.0 | 0.00 | 0.00 | 0.00 | 78 | 1019.5 |
| 20260505054557 | 62 | 197 | 11.0 | 21.0 | 0.00 | 0.00 | 0.00 | 79 | 1019.3 |
| 20260505053056 | 62 | 202 | 12.0 | 20.0 | 0.00 | 0.00 | 0.00 | 78 | 1019.1 |
| 20260505051557 | 62 | 203 | 9.0 | 18.0 | 0.00 | 0.00 | 0.00 | 79 | 1019.1 |
| 20260505041548 | 62 | 238 | 8.0 | 18.0 | 0.00 | 0.00 | 0.00 | 78 | 1018.4 |
| 20260505040049 | 62 | 236 | 9.0 | 16.0 | 0.00 | 0.00 | 0.00 | 77 | 1018.4 |
| 20260505034550 | 63 | 243 | 9.0 | 22.0 | 0.00 | 0.00 | 0.00 | 75 | 1018.3 |
| 20260505033047 | 62 | 219 | 11.0 | 20.0 | 0.00 | 0.00 | 0.00 | 76 | 1018.3 |
| 20260505031550 | 62 | 211 | 11.0 | 18.0 | 0.00 | 0.00 | 0.00 | 77 | 1018.2 |
| 20260505030044 | 62 | 213 | 10.0 | 19.0 | 0.00 | 0.00 | 0.00 | 78 | 1018.2 |
| 20260505024543 | 62 | 219 | 9.0 | 19.0 | 0.00 | 0.00 | 0.00 | 78 | 1018.2 |
| 20260505023049 | 62 | 231 | 10.0 | 18.0 | 0.00 | 0.00 | 0.00 | 77 | 1018.3 |
| 20260505021543 | 62 | 205 | 9.0 | 18.0 | 0.00 | 0.00 | 0.00 | 77 | 1018.3 |
| 20260505020041 | 62 | 203 | 9.0 | 17.0 | 0.00 | 0.00 | 0.00 | 76 | 1018.4 |
| 20260505014539 | 62 | 207 | 7.0 | 16.0 | 0.00 | 0.00 | 0.00 | 74 | 1018.5 |
| 20260505013037 | 62 | 206 | 7.0 | 14.0 | 0.00 | 0.00 | 0.00 | 73 | 1018.6 |
| 20260505011538 | 62 | 247 | 5.0 | 10.0 | 0.00 | 0.00 | 0.00 | 73 | 1018.5 |
| 20260505010100 | 62 | 227 | 7.0 | 12.0 | 0.00 | 0.00 | 0.00 | 74 | 1018.5 |
| 20260505004533 | 64 | 212 | 5.0 | 13.0 | 0.00 | 0.00 | 0.00 | 68 | 1018.2 |
| 20260505003032 | 63 | 229 | 6.0 | 13.0 | 0.00 | 0.00 | 0.00 | 65 | 1017.9 |
| 20260505001528 | 64 | 189 | 3.0 | 7.0 | 0.00 | 0.00 | 0.00 | 67 | 1017.8 |
| 20260505000040 | 63 | 253 | 5.0 | 12.0 | 0.00 | 0.00 | 0.00 | 64 | 1017.6 |
| 20260504234524 | 63 | 220 | 2.0 | 10.0 | 0.00 | 0.00 | 0.00 | 65 | 1017.6 |
| 20260504233022 | 62 | 243 | 3.0 | 9.0 | 0.00 | 0.00 | 0.00 | 66 | 1017.6 |
| 20260504231519 | 62 | 304 | 5.0 | 10.0 | 0.00 | 0.00 | 0.00 | 68 | 1017.4 |
| 20260504230020 | 61 | 273 | 4.0 | 11.0 | 0.00 | 0.00 | 0.00 | 68 | 1017.1 |
| 20260504224513 | 61 | 236 | 5.0 | 9.0 | 0.00 | 0.00 | 0.00 | 68 | 1017.2 |
| 20260504223012 | 59 | 288 | 3.0 | 8.0 | 0.00 | 0.00 | 0.00 | 73 | 1017.1 |
| 20260504221517 | 58 | 322 | 4.0 | 7.0 | 0.00 | 0.00 | 0.00 | 75 | 1017.0 |
| 20260504220003 | 57 | 313 | 5.0 | 7.0 | 0.00 | 0.00 | 0.00 | 75 | 1016.7 |
| 20260504214500 | 56 | 297 | 4.0 | 7.0 | 0.00 | 0.00 | 0.00 | 76 | 1016.5 |
| 20260504213112 | 0 | 0.0 | 0.0 | 0.00 | 0.00 | 0.00 | 1016.3 | ||
| 20260504211553 | 0 | 0.0 | 0.0 | 0.00 | 0.00 | 0.00 | 1016.0 | ||
| 20260504210049 | 0 | 0.0 | 0.0 | 0.00 | 0.00 | 0.00 | 1015.7 | ||
| 20260504204547 | 0 | 0.0 | 0.0 | 0.00 | 0.00 | 0.00 | 1015.4 | ||
| 20260504203048 | 0 | 0.0 | 0.0 | 0.00 | 0.00 | 0.00 | 1015.1 | ||
| 20260504201538 | 0 | 0.0 | 0.0 | 0.00 | 0.00 | 0.00 | 1014.9 | ||
| 20260504200032 | 0 | 0.0 | 0.0 | 0.00 | 0.00 | 0.00 | 1014.5 | ||
| 20260504194537 | 0 | 0.0 | 0.0 | 0.00 | 0.00 | 0.00 | 1014.3 | ||
| 20260504193024 | 0 | 0.0 | 0.0 | 0.00 | 0.00 | 0.00 | 1014.2 | ||
| 20260504191530 | 0 | 0.0 | 0.0 | 0.00 | 0.00 | 0.00 | 1014.0 | ||
| 20260504190015 | 0 | 0.0 | 0.0 | 0.00 | 0.00 | 0.00 | 1013.7 | ||
| 20260504184514 | 0 | 321 | 5.0 | 9.0 | 0.00 | 0.00 | 0.00 | 73 | 1013.6 |
| 20260504183005 | 56 | 303 | 5.0 | 8.0 | 0.00 | 0.00 | 0.00 | 72 | 1013.5 |
| 20260504181505 | 56 | 308 | 7.0 | 11.0 | 0.00 | 0.00 | 0.00 | 73 | 1013.2 |
| 20260504180002 | 55 | 297 | 5.0 | 8.0 | 0.00 | 0.00 | 0.00 | 75 | 1013.3 |
| 20260504174501 | 54 | 295 | 4.0 | 8.0 | 0.00 | 0.00 | 0.00 | 77 | 1013.1 |
| 20260504173100 | 54 | 307 | 3.0 | 6.0 | 0.00 | 0.00 | 0.00 | 76 | 1013.1 |
| 20260504171600 | 56 | 344 | 3.0 | 11.0 | 0.00 | 0.00 | 0.00 | 73 | 1012.8 |